Location: Bonnesvalyn
(49.1218°N, 3.3177°E)
Time: 14:36:50
(UTC+00:00)

PSLV R/B - Pass Details

Date: 09 February 2023
Orbit: 491 x 557 km, 97.8° (Epoch: 25 March)

Event Time Altitude Azimuth Distance (km) Brightness Sun altitude
Rises 18:05:22 0° 155° (SSE) 2,585 7.1 -11.7°
Reaches altitude 10° 18:07:26 10° 151° (SSE) 1,715 6.1 -12.0°
Maximum altitude 18:11:04 58° 73° (ENE) 605 3.7 -12.6°
Drops below altitude 10° 18:14:48 10° 354° (N) 1,769 6.4 -13.2°
Sets 18:16:57 0° 350° (N) 2,675 7.4 -13.6°
